User: anonymous   Login
Location: Unspecified
(0.0000°N, 0.0000°E)
Time: 18:44:26
(UTC+02:00)
Language:

Cosmos 1953 Rocket - Orbit

View from above orbital plane
View from above orbital plane
View from above satellite
View from above satellite

Ground track
Ground track

The orbit data is extracted from the following two-line orbital elements,

1 19211U 88050B   16237.78616223  .00000078  00000-0  66599-5 0  9994
2 19211  82.5268 119.6325 0022386  18.0833  24.9188 14.82913185522865
Epoch (UTC): 24 August 2016 18:52:04
Eccentricity: 0.0022386
inclination: 82.5268°
perigee height: 604 km
apogee height: 636 km
right ascension of ascending node: 119.6325°
argument of perigee: 18.0833°
revolutions per day: 14.82913185
mean anomaly at epoch: 24.9188°
orbit number at epoch: 52286

The dashed part of the orbit path shows where the satellite is in the earth's shadow,  

DLR